Regional Weather Roundup
Issued by NWS Spokane, WA

Home | Current Version | Previous Version | Text Only | Print | Product List | Glossary On
Versions: 1 2 3 4 5 6 7 8 9 10 11 12 13 14 15 16 17 18 19 20 21 22 23 24 25 26 27 28 29 30 31 32 33 34 35 36 37 38 39 40 41 42 43 44 45 46 47 48 49 50
000
NZUS01 KOTX 190010
RWROTX
EASTERN WASHINGTON/NORTHERN IDAHO ROUNDUP
NATIONAL WEATHER SERVICE, SPOKANE WA
500 PM PDT FRI APR 18 2014

Note: "fair" indicated few or no clouds below 12,000 feet with no
significant weather and/or obstructions to visibility.

...NORTHEAST WASHINGTON AND NORTHERN IDAHO PANHANDLE...

CITY           SKY/WX    TMP DP  RH WIND       PRES   REMARKS
SPOKANE INTL   MOSUNNY   53  22  29 SW15G24   29.96S
SPOKANE DOWNTO MOSUNNY   56  25  30 SW12      29.97S
COEUR D ALENE  MOSUNNY   52  28  40 SW16G23   29.97S
DEER PARK      CLOUDY    55  23  28 SW16      29.94S
SANDPOINT      CLOUDY    48  32  53 CALM      29.94S

...SOUTHEAST WASHINGTON AND SOUTHERN IDAHO PANHANDLE...

CITY           SKY/WX    TMP DP  RH WIND       PRES   REMARKS
WALLA WALLA    PTSUNNY   59  28  30 SW9       30.02F
PULLMAN/MOSCOW PTSUNNY   51  28  41 W16G22    30.03S
LEWISTON       MOSUNNY   57  22  25 NW9G21    29.99F
LOWELL           N/A     55  28  35 VRB3      29.99S

...COLUMBIA BASIN...

CITY           SKY/WX    TMP DP  RH WIND       PRES   REMARKS
EPHRATA        MOSUNNY   61  16  17 W12       29.95S
MOSES LAKE     MOSUNNY   61  21  21 SW9       29.96F
TRI CITIES     MOSUNNY   64  25  22 W16       30.00S
HERMISTON      SUNNY     61  29  29 SW10      30.01F
PENDLETON      MOSUNNY   58  29  33 W14       30.01F

...EAST SLOPES CASCADES...

CITY           SKY/WX    TMP DP  RH WIND       PRES   REMARKS
THE DALLES     MOSUNNY   63  34  33 NW12      30.00F
YAKIMA         PTSUNNY   61  26  26 VRB7      29.99F
ELLENSBURG     CLOUDY    53  30  41 NW21G31   29.99F
WENATCHEE      PTSUNNY   56  19  23 NW21      29.97S
OMAK           CLOUDY    62  15  16 CALM      29.89S

...SOUTHERN BRITISH COLUMBIA...

CITY           SKY/WX    TMP DP  RH WIND       PRES   REMARKS
PENTICTON      MOSUNNY   59  25  27 N12G18    29.94S
CASTLEGAR      PTSUNNY   52  32  46 N3        29.93S

...WESTERN MONTANA...

CITY           SKY/WX    TMP DP  RH WIND       PRES   REMARKS
MISSOULA       CLOUDY    49  19  30 W16       29.96R

...NEIGHBORING CITIES...

CITY           SKY/WX    TMP DP  RH WIND       PRES   REMARKS
SEATTLE        PTSUNNY   56  33  42 SE5       30.07F
CALGARY        LGT SNOW  32  30  93 N13       29.70R FOG     WCI  22



USA.gov is the U.S. government's official web portal to all federal, state and local government web resources and services.